User: anonymous   Login
Location: Unspecified
(0.0000°N, 0.0000°E)
Time: 06:23:07
(UTC+00:00)
Language:

GRIFEX - Orbit

View from above orbital plane
View from above orbital plane
View from above satellite
View from above satellite

Ground track
Ground track

The orbit data is extracted from the following two-line orbital elements,

1 40379U 15003D   18175.67632077  .00000997  00000-0  47908-4 0  9999
2 40379  99.0893  75.0749 0137574 218.0923 141.0518 15.14370574187235
Epoch (UTC): 24 June 2018 16:13:54
Eccentricity: 0.0137574
inclination: 99.0893°
perigee height: 428 km
apogee height: 618 km
right ascension of ascending node: 75.0749°
argument of perigee: 218.0923°
revolutions per day: 15.14370574
mean anomaly at epoch: 141.0518°
orbit number at epoch: 18723

The dashed part of the orbit path shows where the satellite is in the earth's shadow,  

DLR